| time (UTC) | temp C | wind direction | speed KPH | gust KPH | rain 1hr cm | rain 24hr cm | rain mn cm | humidity % | barometer mb |
| 20260504081526 | 13 | 251 | 3.2 | 9.7 | 0.00 | 0.00 | 0.00 | 40 | 996.3 |
| 20260504044550 | 11 | 238 | 0.0 | 3.2 | 0.00 | 0.00 | 0.00 | 48 | 1000.1 |
| 20260504043058 | 11 | 235 | 0.0 | 1.6 | 0.00 | 0.00 | 0.00 | 48 | 1000.4 |
| 20260504041545 | 11 | 236 | 0.0 | 0.0 | 0.00 | 0.00 | 0.00 | 48 | 1001.2 |
| 20260504040046 | 11 | 249 | 0.0 | 1.6 | 0.00 | 0.00 | 0.00 | 49 | 1001.6 |
| 20260504034547 | 11 | 252 | 0.0 | 0.0 | 0.00 | 0.00 | 0.00 | 50 | 1001.9 |
| 20260504033041 | 11 | 252 | 0.0 | 0.0 | 0.00 | 0.00 | 0.00 | 50 | 1002.2 |
| 20260504031537 | 11 | 252 | 0.0 | 0.0 | 0.00 | 0.00 | 0.00 | 48 | 1002.4 |
| 20260504030039 | 12 | 252 | 0.0 | 0.0 | 0.00 | 0.00 | 0.00 | 45 | 1002.7 |
| 20260504024535 | 13 | 252 | 0.0 | 0.0 | 0.00 | 0.00 | 0.00 | 41 | 1002.7 |
| 20260504023034 | 15 | 252 | 0.0 | 0.0 | 0.00 | 0.00 | 0.00 | 37 | 1002.9 |
| 20260504021536 | 15 | 252 | 0.0 | 1.6 | 0.00 | 0.00 | 0.00 | 36 | 1003.0 |
| 20260504020040 | 16 | 241 | 0.0 | 1.6 | 0.00 | 0.00 | 0.00 | 34 | 1002.9 |
| 20260504014537 | 16 | 231 | 0.0 | 1.6 | 0.00 | 0.00 | 0.00 | 33 | 1002.9 |
| 20260504013031 | 17 | 245 | 0.0 | 1.6 | 0.00 | 0.00 | 0.00 | 31 | 1002.5 |
| 20260504011533 | 17 | 238 | 0.0 | 3.2 | 0.00 | 0.00 | 0.00 | 29 | 1002.6 |
| 20260504010029 | 18 | 251 | 0.0 | 3.2 | 0.00 | 0.00 | 0.00 | 26 | 1002.6 |
| 20260504004528 | 19 | 255 | 0.0 | 4.8 | 0.00 | 0.00 | 0.00 | 24 | 1002.7 |
| 20260504003026 | 20 | 306 | 1.6 | 9.7 | 0.00 | 0.00 | 0.00 | 23 | 1002.9 |
| 20260504001524 | 20 | 304 | 0.0 | 12.9 | 0.00 | 0.00 | 0.00 | 24 | 1003.0 |
| 20260504000024 | 20 | 258 | 3.2 | 11.3 | 0.00 | 0.00 | 0.00 | 25 | 1003.2 |
| 20260503234523 | 20 | 339 | 3.2 | 11.3 | 0.00 | 0.00 | 0.00 | 25 | 1003.0 |
| 20260503233021 | 21 | 246 | 3.2 | 14.5 | 0.00 | 0.00 | 0.00 | 25 | 1003.2 |
| 20260503231522 | 21 | 280 | 3.2 | 12.9 | 0.00 | 0.00 | 0.00 | 23 | 1003.2 |
| 20260503230021 | 21 | 287 | 6.4 | 12.9 | 0.00 | 0.00 | 0.00 | 23 | 1003.3 |
| 20260503224518 | 21 | 252 | 3.2 | 17.7 | 0.00 | 0.00 | 0.00 | 23 | 1003.4 |
| 20260503223017 | 21 | 346 | 3.2 | 14.5 | 0.00 | 0.00 | 0.00 | 23 | 1003.5 |
| 20260503221516 | 21 | 349 | 3.2 | 22.5 | 0.00 | 0.00 | 0.00 | 22 | 1003.7 |
| 20260503220016 | 21 | 6 | 3.2 | 11.3 | 0.00 | 0.00 | 0.00 | 22 | 1003.7 |
| 20260503214533 | 21 | 270 | 1.6 | 22.5 | 0.00 | 0.00 | 0.00 | 24 | 1003.9 |
| 20260503213013 | 21 | 342 | 1.6 | 19.3 | 0.00 | 0.00 | 0.00 | 23 | 1004.0 |
| 20260503211512 | 21 | 311 | 6.4 | 14.5 | 0.00 | 0.00 | 0.00 | 22 | 1004.2 |
| 20260503210010 | 21 | 339 | 1.6 | 11.3 | 0.00 | 0.00 | 0.00 | 24 | 1004.2 |
| 20260503204507 | 20 | 10 | 6.4 | 17.7 | 0.00 | 0.00 | 0.00 | 24 | 1004.6 |
| 20260503203005 | 20 | 8 | 6.4 | 16.1 | 0.00 | 0.00 | 0.00 | 24 | 1004.8 |
| 20260503201506 | 20 | 257 | 4.8 | 22.5 | 0.00 | 0.00 | 0.00 | 24 | 1004.8 |
| 20260503200004 | 20 | 353 | 9.7 | 24.1 | 0.00 | 0.00 | 0.00 | 23 | 1005.0 |
| 20260503194502 | 20 | 316 | 3.2 | 22.5 | 0.00 | 0.00 | 0.00 | 24 | 1005.1 |
| 20260503193002 | 20 | 336 | 8.0 | 20.9 | 0.00 | 0.00 | 0.00 | 23 | 1005.2 |
| 20260503191607 | 19 | 262 | 8.0 | 29.0 | 0.00 | 0.00 | 0.00 | 23 | 1005.4 |
| 20260503184616 | 19 | 311 | 9.7 | 24.1 | 0.00 | 0.00 | 0.00 | 27 | 1005.6 |
| 20260503183100 | 19 | 322 | 8.0 | 19.3 | 0.00 | 0.00 | 0.00 | 29 | 1005.5 |
| 20260503181612 | 19 | 297 | 8.0 | 22.5 | 0.00 | 0.00 | 0.00 | 29 | 1005.7 |
| 20260503180112 | 18 | 348 | 9.7 | 20.9 | 0.00 | 0.00 | 0.00 | 30 | 1005.9 |
| 20260503174557 | 18 | 17 | 11.3 | 20.9 | 0.00 | 0.00 | 0.00 | 31 | 1005.9 |
| 20260503173101 | 18 | 278 | 6.4 | 17.7 | 0.00 | 0.00 | 0.00 | 34 | 1005.9 |
| 20260503171552 | 18 | 331 | 4.8 | 20.9 | 0.00 | 0.00 | 0.00 | 36 | 1006.0 |